TimeEDT,TemperatureF,Dew PointF,Humidity,Sea Level PressureIn,VisibilityMPH,Wind Direction,Wind SpeedMPH,Gust SpeedMPH,PrecipitationIn,Events,Conditions,WindDirDegrees,DateUTC
12:15 AM,69.8,68.0,94,30.10,10.0,Calm,Calm,-,N/A,,Clear,0,2013-05-20 04:15:00
12:35 AM,68.0,66.2,94,30.09,10.0,Calm,Calm,-,N/A,,Scattered Clouds,0,2013-05-20 04:35:00
12:55 AM,68.0,66.2,94,30.09,10.0,NNE,3.5,-,N/A,,Mostly Cloudy,30,2013-05-20 04:55:00
1:15 AM,69.8,68.0,94,30.09,10.0,Calm,Calm,-,N/A,,Overcast,0,2013-05-20 05:15:00
1:35 AM,69.8,68.0,94,30.08,10.0,Calm,Calm,-,N/A,,Overcast,0,2013-05-20 05:35:00
1:55 AM,69.8,68.0,94,30.07,10.0,NE,3.5,-,N/A,,Overcast,50,2013-05-20 05:55:00
2:15 AM,69.8,68.0,94,30.06,10.0,Calm,Calm,-,N/A,,Overcast,0,2013-05-20 06:15:00
2:35 AM,68.0,68.0,100,30.06,10.0,Calm,Calm,-,N/A,,Overcast,0,2013-05-20 06:35:00
2:55 AM,68.0,68.0,100,30.05,10.0,Calm,Calm,-,N/A,,Overcast,0,2013-05-20 06:55:00
3:15 AM,68.0,68.0,100,30.04,10.0,Calm,Calm,-,N/A,,Scattered Clouds,0,2013-05-20 07:15:00
3:35 AM,68.0,68.0,100,30.04,10.0,Calm,Calm,-,N/A,,Mostly Cloudy,0,2013-05-20 07:35:00
3:55 AM,68.0,68.0,100,30.04,10.0,Calm,Calm,-,N/A,,Mostly Cloudy,0,2013-05-20 07:55:00
4:15 AM,68.0,66.2,94,30.04,10.0,NNE,3.5,-,N/A,,Scattered Clouds,30,2013-05-20 08:15:00
4:35 AM,68.0,66.2,94,30.03,7.0,Calm,Calm,-,N/A,,Clear,0,2013-05-20 08:35:00
4:55 AM,66.2,66.2,100,30.02,7.0,Calm,Calm,-,N/A,,Clear,0,2013-05-20 08:55:00
5:15 AM,66.2,66.2,100,30.02,7.0,Calm,Calm,-,N/A,,Clear,0,2013-05-20 09:15:00
5:35 AM,66.2,66.2,100,30.03,7.0,Calm,Calm,-,N/A,,Clear,0,2013-05-20 09:35:00
6:15 AM,66.2,64.4,94,30.04,7.0,Calm,Calm,-,N/A,,Clear,0,2013-05-20 10:15:00
6:35 AM,66.2,66.2,100,30.04,7.0,Calm,Calm,-,N/A,,Clear,0,2013-05-20 10:35:00
6:55 AM,66.2,66.2,100,30.06,7.0,Calm,Calm,-,N/A,,Clear,0,2013-05-20 10:55:00
7:15 AM,68.0,66.2,94,30.07,7.0,Calm,Calm,-,N/A,,Clear,0,2013-05-20 11:15:00
7:35 AM,68.0,68.0,100,30.08,7.0,Calm,Calm,-,N/A,,Scattered Clouds,0,2013-05-20 11:35:00
7:55 AM,68.0,68.0,100,30.08,7.0,Calm,Calm,-,N/A,,Scattered Clouds,0,2013-05-20 11:55:00
8:15 AM,69.8,69.8,100,30.08,7.0,NE,3.5,-,N/A,,Scattered Clouds,40,2013-05-20 12:15:00
8:35 AM,71.6,69.8,94,30.09,10.0,Calm,Calm,-,N/A,,Clear,0,2013-05-20 12:35:00
8:55 AM,73.4,69.8,88,30.09,10.0,Calm,Calm,-,N/A,,Scattered Clouds,0,2013-05-20 12:55:00
9:15 AM,75.2,69.8,83,30.09,10.0,Calm,Calm,-,N/A,,Mostly Cloudy,0,2013-05-20 13:15:00
9:35 AM,77.0,69.8,78,30.09,10.0,Calm,Calm,-,N/A,,Scattered Clouds,0,2013-05-20 13:35:00
9:55 AM,78.8,71.6,78,30.09,10.0,Calm,Calm,-,N/A,,Clear,0,2013-05-20 13:55:00
10:15 AM,78.8,71.6,78,30.09,10.0,Calm,Calm,-,N/A,,Scattered Clouds,0,2013-05-20 14:15:00
10:35 AM,80.6,71.6,74,30.09,10.0,Calm,Calm,-,N/A,,Mostly Cloudy,0,2013-05-20 14:35:00
10:55 AM,80.6,69.8,70,30.09,10.0,Calm,Calm,-,N/A,,Scattered Clouds,0,2013-05-20 14:55:00
11:15 AM,82.4,69.8,66,30.08,10.0,SSW,3.5,-,N/A,,Clear,200,2013-05-20 15:15:00
11:35 AM,82.4,68.0,62,30.08,10.0,SW,4.6,-,N/A,,Scattered Clouds,230,2013-05-20 15:35:00
11:55 AM,82.4,68.0,62,30.07,10.0,Calm,Calm,-,N/A,,Scattered Clouds,0,2013-05-20 15:55:00
12:15 PM,82.4,68.0,62,30.08,10.0,North,3.5,-,N/A,,Mostly Cloudy,360,2013-05-20 16:15:00
12:35 PM,77.0,69.8,78,30.08,10.0,ESE,9.2,-,N/A,Rain,Light Rain,110,2013-05-20 16:35:00
12:55 PM,77.0,69.8,78,30.08,10.0,East,10.4,-,N/A,Thunderstorm,Mostly Cloudy,90,2013-05-20 16:55:00
1:15 PM,77.0,69.8,78,30.08,10.0,East,9.2,-,N/A,Thunderstorm,Mostly Cloudy,90,2013-05-20 17:15:00
1:35 PM,77.0,69.8,78,30.08,10.0,East,10.4,-,N/A,,Mostly Cloudy,100,2013-05-20 17:35:00
2:15 PM,77.0,69.8,78,30.08,10.0,ESE,8.1,-,N/A,,Mostly Cloudy,120,2013-05-20 18:15:00
2:35 PM,80.6,68.0,65,30.07,10.0,ESE,8.1,-,N/A,,Mostly Cloudy,110,2013-05-20 18:35:00
2:55 PM,80.6,68.0,65,30.05,10.0,ESE,10.4,-,N/A,,Scattered Clouds,110,2013-05-20 18:55:00
3:15 PM,82.4,69.8,66,30.04,10.0,SE,8.1,-,N/A,Thunderstorm,Clear,130,2013-05-20 19:15:00
3:55 PM,82.4,69.8,66,30.03,10.0,ESE,10.4,-,N/A,,Clear,120,2013-05-20 19:55:00
4:15 PM,82.4,68.0,62,30.03,10.0,SE,10.4,17.3,N/A,,Scattered Clouds,130,2013-05-20 20:15:00
4:35 PM,82.4,68.0,62,30.03,10.0,SE,10.4,-,N/A,,Scattered Clouds,130,2013-05-20 20:35:00
5:15 PM,80.6,68.0,65,30.02,10.0,SE,11.5,-,N/A,,Clear,140,2013-05-20 21:15:00
5:35 PM,78.8,69.8,74,30.02,10.0,SE,9.2,16.1,N/A,,Mostly Cloudy,140,2013-05-20 21:35:00
5:55 PM,78.8,68.0,69,30.01,10.0,South,9.2,-,N/A,,Mostly Cloudy,170,2013-05-20 21:55:00
6:15 PM,78.8,68.0,69,30.00,10.0,SE,8.1,-,N/A,,Scattered Clouds,140,2013-05-20 22:15:00
6:35 PM,77.0,68.0,74,30.00,10.0,SE,6.9,-,N/A,,Clear,140,2013-05-20 22:35:00
6:55 PM,77.0,69.8,78,30.01,10.0,Calm,Calm,-,N/A,,Scattered Clouds,0,2013-05-20 22:55:00
7:15 PM,77.0,68.0,74,30.04,10.0,SSW,3.5,-,N/A,,Mostly Cloudy,200,2013-05-20 23:15:00
7:35 PM,77.0,68.0,74,30.04,10.0,Calm,Calm,-,N/A,,Overcast,0,2013-05-20 23:35:00
7:55 PM,77.0,68.0,74,30.05,10.0,Calm,Calm,-,N/A,,Overcast,0,2013-05-20 23:55:00
8:15 PM,75.2,68.0,78,30.06,10.0,Calm,Calm,-,N/A,,Overcast,0,2013-05-21 00:15:00
8:35 PM,75.2,68.0,78,30.07,10.0,Calm,Calm,-,N/A,,Overcast,0,2013-05-21 00:35:00
8:55 PM,73.4,68.0,83,30.08,10.0,Calm,Calm,-,N/A,,Light Drizzle,0,2013-05-21 00:55:00
9:15 PM,73.4,69.8,88,30.08,10.0,North,5.8,-,N/A,Rain,Light Rain,10,2013-05-21 01:15:00
9:35 PM,73.4,69.8,88,30.07,10.0,NNE,4.6,-,N/A,Rain-Thunderstorm,Light Thunderstorms and Rain,20,2013-05-21 01:35:00
9:55 PM,71.6,69.8,94,30.07,10.0,NE,5.8,-,N/A,Thunderstorm,Thunderstorm,40,2013-05-21 01:55:00
10:15 PM,71.6,69.8,94,30.06,10.0,ESE,3.5,-,N/A,,Light Drizzle,110,2013-05-21 02:15:00
10:35 PM,71.6,69.8,94,30.05,10.0,SSE,4.6,-,N/A,Rain-Thunderstorm,Light Thunderstorms and Rain,160,2013-05-21 02:35:00
10:55 PM,71.6,69.8,94,30.05,10.0,South,3.5,-,0.02,Rain-Thunderstorm,Rain,190,2013-05-21 02:55:00
11:15 PM,69.8,69.8,100,30.05,7.0,SSE,3.5,-,0.03,Rain-Thunderstorm,Thunderstorms and Rain,160,2013-05-21 03:15:00
11:35 PM,69.8,69.8,100,30.04,7.0,East,3.5,-,0.04,Rain-Thunderstorm,Light Thunderstorms and Rain,100,2013-05-21 03:35:00
11:55 PM,69.8,69.8,100,30.03,10.0,East,5.8,-,0.06,Thunderstorm,Clear,90,2013-05-21 03:55:00